www.pogodaiklimat.ru

Погода и климат >> Архив погоды >> Мексика >> Empalme


ПОГОДА в Empalme

  • Прогноз погоды в Empalme
  • Монитор погоды в Empalme
  • Климат города

АРХИВ ПОГОДЫ в Empalme

Время (UTC), дата Ветер
(напр.,м/с)
 
Видим.   Явления Облачность Т
(С)
Тd
(С)
f
(%)
Тe
(С)
Тes
(С)
Комфортность P
(гПа)
Po
(гПа)
Тmin
(С)
Tmax
(С)
R
(мм)
R24
(мм)
S
(см)
00 14.09 З 1 30 км ясно +35.2 +24.9 55 +48 +51 опасность
перегрева
1007.4 1006.0 +28.2 +36.6
03 14.09 З 1 10 км ясно +31.0 +27.0 79 +48 +48 опасность
перегрева
1007.8 1006.4
12 14.09 штиль 0 10 км ясно +28.8 +27.5 93 +47 +47 опасность
перегрева
1007.7 1006.3 +28.6
15 14.09 В 1 30 км ясно +30.0 +26.3 81 +46 +50 опасность
перегрева
1008.6 1007.2
18 14.09 Ю 2 30 км ясно +34.4 +24.8 57 +47 +63 опасность
перегрева
1008.6 1007.2 +28.1 +35.5
00 15.09 ЮЗ 1 30 км ясно +35.0 +26.5 62 +52 +55 опасность
перегрева
1006.5 1005.1 +28.1 +36.5
15 15.09 ЮВ 5 30 км ясно +31.4 +24.8 68 +45 +46 опасность
перегрева
1010.4 1009.0
18 15.09 Ю 6 30 км 1/1 600 м
[Cu hum]
+34.5 +25.3 59 +49 +54 опасность
перегрева
1011.2 1009.8 +28.3 +35.1
21 15.09 ЮВ 10 30 км 5/5 600 м
[Cu med, cong]
+32.0 +26.7 74 +49 +50 опасность
перегрева
1010.5 1009.1
00 16.09 Ю 1 30 км 5/5 600 м
[Sc diur, vesp]
+33.4 +26.3 66 +50 +51 опасность
перегрева
1009.1 1007.8 +28.3 +36.3
03 16.09 Ю 1 10 км 5/5 600 м
[Sc diur, vesp]
+29.8 +23.5 69 +40 +40 очень
душно
1009.0 1007.7
12 16.09 штиль 0 10 км ясно +26.8 +24.1 85 +37 +37 очень
душно
1010.4 1009.0 +26.1 +36.3
15 16.09 СВ 2 30 км ясно +28.9 +23.6 73 +39 +42 очень
душно
1011.8 1010.4
18 16.09 ЮВ 3 30 км ясно +33.8 +24.4 58 +46 +59 опасность
перегрева
1012.2 1010.8 +26.1 +34.6
21 16.09 Ю 4 30 км ясно +35.4 +25.3 56 +49 +59 опасность
перегрева
1009.5 1008.2
00 17.09 штиль 0 30 км ясно +35.4 +25.6 57 +50 +53 опасность
перегрева
1007.9 1006.4 +26.1 +36.1
03 17.09 штиль 0 10 км ясно +31.2 +23.0 62 +41 +41 опасность
перегрева
1008.6 1007.1
15 17.09 ЮВ 5 30 км 1/0
[Ac trans]
+30.5 +24.4 70 +43 +44 опасность
перегрева
1009.8 1008.4
18 17.09 Ю 11 30 км 8/8 1000 м
[Sc diur, vesp]
+32.5 +26.0 69 +48 +48 опасность
перегрева
1011.2 1009.8 +33.3
21 17.09 ЮЗ 8 30 км 5/5 1000 м
[Sc diur, vesp]
+32.5 +26.6 71 +49 +51 опасность
перегрева
1009.8 1008.4
00 18.09 Ю 3 30 км 6/6 600 м
[Sc diur, vesp]
+31.8 +25.4 69 +46 +47 опасность
перегрева
1008.9 1007.5 +27.8 +34.2
03 18.09 Ю 2 30 км 6/6 600 м
[Sc diur, vesp]
+28.8 +23.6 74 +39 +39 очень
душно
1009.1 1007.8
15 18.09 В 3 30 км 6/6 600 м
[Cu med, cong]
+28.8 +23.6 74 +39 +40 очень
душно
1012.0 1010.6
18 18.09 Ю 3 30 км 5/5 600 м
[Cu med, cong]
+33.6 +23.7 56 +45 +51 опасность
перегрева
1012.3 1011.0 +25.7 +34.7
21 18.09 ЮЗ 4 30 км 4/4 1000 м
[Sc diur, vesp]
+34.4 +25.7 61 +50 +55 опасность
перегрева
1010.1 1008.7
00 19.09 Ю 7 30 км 5/5 600 м
[Cu med, cong]
+33.3 +25.3 63 +48 +48 опасность
перегрева
1008.4 1007.0 +25.7 +35.1
12 19.09 Ю 1 30 км 6/6 600 м
[Sc diur, vesp]
+27.4 +24.7 85 +39 +39 очень
душно
1009.0 1008.0 +26.7 +35.1
15 19.09 ЮВ 2 30 км 10/0
[Ac As]
+27.5 +24.1 82 +38 +39 очень
душно
1009.0 1007.6
18 19.09 ЮВ 4 30 км 10/0
[Ac As]
+28.4 +23.8 76 +39 +42 очень
душно
1009.7 1008.3 +26.0 +28.8
21 19.09 ЮВ 2 30 км дождь {морось} 10/10 600 м
[Cu Sc]
+25.6 +24.1 91 +35 +35 очень
душно
1008.1 1006.7 4
03 20.09 В 2 10 км {морось} 10/0 2000 м
[As op]
+23.4 +22.8 96 +33 +33 очень
душно
1006.3 1004.9 24
12 20.09 штиль 0 10 км 3/3 600 м
[Sc diur, vesp]
+24.0 +22.9 94 +32 +32 очень
душно
1007.0 1005.6 +23.0
15 20.09 штиль 0 30 км 6/6 600 м
[Cu med, cong]
+25.0 +23.1 89 +33 +35 очень
душно
1010.1 1008.7
18 20.09 Ю 3 30 км 3/3 600 м
[Cu med, cong]
+29.8 +25.0 75 +43 +51 опасность
перегрева
1011.6 1010.2 +23.0 +31.6

 

Местоположение метеостанции Empalme (Мексика): широта 27.95 долгота -110.70 высота над уровнем моря 12 м.

В архиве по умолчанию представлена погода в Empalme за последнюю неделю. Архивные данные за месяц целиком и за предыдущие месяцы, начиная с января 2011 года, Вы можете получить, выбрав интересующий диапазон дат из раскрывающегося списка и нажав кнопку "Ввод!".


*Определитесь, кто Вы:
робот инопланетянин человек

Внимание! Время в таблицах - всемирное. Для получения местного времени необходимо прибавить поправку, которая в Empalme равна -7 ч.

Смотрите также архив погоды в соседних городах и на ближайших метеорологических станциях:

Погода в Guaymas (Мексика) (18 км)
Погода в Ciudad Obregon (Мексика) (106 км)
Погода в Hermosillo la Magna (Мексика) (128 км)
Погода в Hermosillo (Мексика) (131 км)
Погода в Santa Rosalia (Мексика) (170 км)
Погода в Loreto (Мексика) (223 км)
Погода в Choix (Мексика) (282 км)
Погода в Pilares de Nacoz (Мексика) (287 км)
Погода в Temosachic (Мексика) (305 км)
Погода в Altar Son (Мексика) (326 км)

Пояснения к столбцам:

Ветер - указаны скорость ветра в м/с - средняя за 10 мин, порывы в срок и между сроками (в фигурных скобках) и направление, откуда дует ветер: С - северный, СВ - северо-восточный, В - восточный, ЮВ - юго-восточный, Ю - южный, ЮЗ - юго-западный, З - западный, СЗ - северо-западный.
Видимость - горизонтальная дальность видимости в метрах или километрах. При видимости от 1 до 10 км при отсутствии осадков обычно наблюдается дымка, при ухудшении видимости до 1 км и менее - туман. В сухую погоду видимость может ухудшаться дымом, пылью или мглою.
Явления - указаны атмосферные явления, наблюдавшиеся в срок или в последний час перед сроком; фигурными скобками обозначены явления, наблюдавшиеся между сроками (за 1-3 часа до срока); квадратными скобками обозначены град или гололедные отложения с указанием их диаметра в мм.
Облачность - указаны через наклонную черту общая и нижняя облачность в баллах и высота нижней границы облаков в метрах; квадратными скобками обозначены формы облаков: Ci - перистые, Cs - перисто-слоистые, Cc - перисто-кучевые, Ac - высококучевые, As - высокослоистые, Sc - слоисто-кучевые, Ns - слоисто-дождевые, Cu - кучевые, Cb - кучево-дождевые. Подробнее классификацию облаков см. в Атласе облаков (PDF).
T - Температура воздуха - температура, измеренная на высоте 2 м над землей.
Td - Температура точки росы - температура, при понижении до которой содержащийся в воздухе водяной пар достигнет насыщения.
f - Относительная влажность воздуха - влажноcть воздуха, измеренная на высоте 2 м над землей.
Te - Эффективная температура - температура, которую ощущает одетый по сезону человек в тени. Характеристика душности погоды. При расчете учитывается влияние влажности воздуха и скорости ветра на теплоощущения человека.
Tes - Эффективная температура на солнце - температура, которую ощущает человек, с поправкой на солнечный нагрев. Характеристика знойности погоды. Зависит от высоты солнца над горизонтом, облачности и скорости ветра. Ночью, в пасмурную погоду, а также при ветре 12 м/с и более поправка равна нулю.
P - Атмосферное давление - приведенное к уровню моря атмосферное давление.
Po - Атмосферное давление - измеренное на уровне метеостанции атмосферное давление.
Tmin - Минимальная температура - минимум температуры воздуха на высоте 2 м над землей.
Tmax - Максимальная температура - максимум температуры воздуха на высоте 2 м над землей.
R - Количество осадков - Количество выпавших осадков за период времени, мм. При наведении курсора мыши на число - период времени, за который выпало указанное количество осадков.
R24 - Количество осадков - Количество выпавших осадков за 24 часа, мм.
S - Снежный покров - Высота снежного покрова, см. При наведении курсора мыши на число - состояние снежного покрова и степень покрытия местности в баллах.